Time,TemperatureF,DewpointF,PressureIn,WindDirection,WindDirectionDegrees,WindSpeedMPH,WindSpeedGustMPH,Humidity,HourlyPrecipIn,Conditions,Clouds,dailyrainin,SoftwareType,DateUTC
2013-06-24 00:02:00,65.7,62.2,29.92,NNW,327,0.0,0.0,89,0.00,,,0.59,meteohub,2013-06-24 05:02:00,
2013-06-24 00:07:00,65.5,62.2,29.92,NNW,327,0.0,0.0,89,0.00,,,0.00,meteohub,2013-06-24 05:07:00,
2013-06-24 00:12:00,65.3,62.1,29.92,NNW,327,0.0,0.0,89,0.00,,,0.00,meteohub,2013-06-24 05:12:00,
2013-06-24 00:17:00,64.9,61.7,29.92,NNW,328,0.0,0.0,89,0.00,,,0.00,meteohub,2013-06-24 05:17:00,
2013-06-24 00:22:00,64.9,61.7,29.92,NNW,327,0.0,0.0,89,0.00,,,0.00,meteohub,2013-06-24 05:22:00,
2013-06-24 00:27:00,64.8,61.5,29.93,NNW,327,0.0,0.0,89,0.00,,,0.00,meteohub,2013-06-24 05:27:00,
2013-06-24 00:32:00,64.8,61.5,29.92,NNW,327,0.0,0.0,89,0.00,,,0.00,meteohub,2013-06-24 05:32:00,
2013-06-24 00:37:00,64.8,61.5,29.92,NNW,327,0.0,0.0,89,0.00,,,0.00,meteohub,2013-06-24 05:37:00,
2013-06-24 00:42:00,64.9,61.7,29.92,NNW,327,0.0,0.0,89,0.00,,,0.00,meteohub,2013-06-24 05:42:00,
2013-06-24 00:47:00,64.9,61.7,29.92,NNW,327,0.0,0.0,89,0.00,,,0.00,meteohub,2013-06-24 05:47:00,
2013-06-24 00:52:00,64.9,61.7,29.93,NNW,327,0.0,0.0,89,0.00,,,0.00,meteohub,2013-06-24 05:52:00,
2013-06-24 00:57:00,64.8,61.5,29.93,NNW,327,0.0,0.0,89,0.00,,,0.00,meteohub,2013-06-24 05:57:00,
2013-06-24 01:02:00,64.6,61.3,29.93,NNW,327,0.0,0.0,89,0.00,,,0.00,meteohub,2013-06-24 06:02:00,
2013-06-24 01:07:00,64.8,61.5,29.93,NNW,327,0.0,0.0,89,0.00,,,0.00,meteohub,2013-06-24 06:07:00,
2013-06-24 01:12:00,64.8,61.5,29.93,NNW,327,0.0,0.0,89,0.00,,,0.00,meteohub,2013-06-24 06:12:00,
2013-06-24 01:17:00,64.8,61.5,29.93,NNW,327,0.0,0.0,89,0.00,,,0.00,meteohub,2013-06-24 06:17:00,
2013-06-24 01:22:00,64.6,61.3,29.93,NNW,327,0.0,0.0,89,0.00,,,0.00,meteohub,2013-06-24 06:22:00,
2013-06-24 01:27:00,64.6,61.3,29.93,NNW,327,0.0,0.0,89,0.00,,,0.00,meteohub,2013-06-24 06:27:00,
2013-06-24 01:32:00,64.6,61.3,29.93,NNW,327,0.0,0.0,89,0.00,,,0.00,meteohub,2013-06-24 06:32:00,
2013-06-24 01:37:00,64.4,61.2,29.93,NNW,327,0.0,0.0,89,0.00,,,0.00,meteohub,2013-06-24 06:37:00,
2013-06-24 01:42:00,64.2,61.0,29.93,NNW,328,0.0,0.0,89,0.00,,,0.00,meteohub,2013-06-24 06:42:00,
2013-06-24 01:47:00,63.9,60.6,29.93,NNW,327,0.0,0.0,89,0.00,,,0.00,meteohub,2013-06-24 06:47:00,
2013-06-24 01:52:00,63.7,60.4,29.93,NNW,327,0.0,0.0,89,0.00,,,0.00,meteohub,2013-06-24 06:52:00,
2013-06-24 01:58:00,63.0,59.7,29.93,NNW,327,0.0,0.0,89,0.00,,,0.00,meteohub,2013-06-24 06:58:00,
2013-06-24 02:03:00,63.1,59.9,29.93,NNW,327,0.0,0.0,89,0.00,,,0.00,meteohub,2013-06-24 07:03:00,
2013-06-24 02:09:00,63.3,60.1,29.93,NNW,327,0.0,0.0,89,0.00,,,0.00,meteohub,2013-06-24 07:09:00,
2013-06-24 02:14:00,63.5,60.3,29.93,NNW,327,0.0,0.0,89,0.00,,,0.00,meteohub,2013-06-24 07:14:00,
2013-06-24 02:20:00,63.9,60.6,29.93,NNW,327,0.0,0.0,89,0.00,,,0.00,meteohub,2013-06-24 07:20:00,
2013-06-24 02:25:00,63.9,60.6,29.93,NNW,327,0.0,0.0,89,0.00,,,0.00,meteohub,2013-06-24 07:25:00,
2013-06-24 02:30:00,63.5,60.3,29.92,NNW,327,0.0,0.0,89,0.00,,,0.00,meteohub,2013-06-24 07:30:00,
2013-06-24 02:36:00,63.5,60.3,29.92,NNW,327,0.0,0.0,89,0.00,,,0.00,meteohub,2013-06-24 07:36:00,
2013-06-24 02:41:00,63.3,60.1,29.92,NNW,327,0.0,0.0,89,0.00,,,0.00,meteohub,2013-06-24 07:41:00,
2013-06-24 02:46:00,63.5,60.3,29.92,NNW,327,0.0,0.0,89,0.00,,,0.00,meteohub,2013-06-24 07:46:00,
2013-06-24 02:51:00,63.7,60.4,29.92,NNW,327,0.0,0.0,89,0.00,,,0.00,meteohub,2013-06-24 07:51:00,
2013-06-24 02:56:00,63.7,60.4,29.92,NNW,327,0.0,0.0,89,0.00,,,0.00,meteohub,2013-06-24 07:56:00,
2013-06-24 03:02:00,62.8,59.5,29.92,NNW,327,0.0,0.0,89,0.00,,,0.00,meteohub,2013-06-24 08:02:00,
2013-06-24 03:07:00,61.5,58.3,29.92,NNW,327,0.0,0.0,89,0.00,,,0.00,meteohub,2013-06-24 08:07:00,
2013-06-24 03:12:00,61.2,57.9,29.92,NNW,327,0.0,0.0,89,0.00,,,0.00,meteohub,2013-06-24 08:12:00,
2013-06-24 03:17:00,61.3,58.1,29.92,NNW,327,0.0,0.0,89,0.00,,,0.00,meteohub,2013-06-24 08:17:00,
2013-06-24 03:22:00,62.2,59.0,29.92,NNW,327,0.0,0.0,89,0.00,,,0.00,meteohub,2013-06-24 08:22:00,
2013-06-24 03:27:00,62.2,59.0,29.92,NNW,327,0.0,0.0,89,0.00,,,0.00,meteohub,2013-06-24 08:27:00,
2013-06-24 03:32:00,61.5,58.3,29.92,NNW,327,0.0,0.0,89,0.00,,,0.00,meteohub,2013-06-24 08:32:00,
2013-06-24 03:37:00,61.7,58.5,29.92,NNW,327,0.0,0.0,89,0.00,,,0.00,meteohub,2013-06-24 08:37:00,
2013-06-24 03:42:00,61.3,58.1,29.92,NNW,327,0.0,0.0,89,0.00,,,0.00,meteohub,2013-06-24 08:42:00,
2013-06-24 03:47:00,62.2,59.0,29.92,NNW,327,0.0,0.0,89,0.00,,,0.00,meteohub,2013-06-24 08:47:00,
2013-06-24 03:52:00,62.2,59.0,29.91,NNW,327,0.0,0.0,89,0.00,,,0.00,meteohub,2013-06-24 08:52:00,
2013-06-24 03:57:00,62.2,59.0,29.92,NNW,327,0.0,0.0,89,0.00,,,0.00,meteohub,2013-06-24 08:57:00,
2013-06-24 04:02:00,62.4,59.2,29.92,NNW,327,0.0,0.0,89,0.00,,,0.00,meteohub,2013-06-24 09:02:00,
2013-06-24 04:07:00,62.8,59.5,29.92,NNW,327,0.0,0.0,89,0.00,,,0.00,meteohub,2013-06-24 09:07:00,
2013-06-24 04:12:00,62.2,59.0,29.92,NNW,327,0.0,0.0,89,0.00,,,0.00,meteohub,2013-06-24 09:12:00,
2013-06-24 04:17:00,62.1,58.8,29.92,NNW,327,0.0,0.0,89,0.00,,,0.00,meteohub,2013-06-24 09:17:00,
2013-06-24 04:23:00,62.6,59.4,29.91,NNW,327,0.0,0.0,89,0.00,,,0.00,meteohub,2013-06-24 09:23:00,
2013-06-24 04:28:00,63.0,59.7,29.91,NNW,327,0.0,0.0,89,0.00,,,0.00,meteohub,2013-06-24 09:28:00,
2013-06-24 04:33:00,62.4,59.2,29.92,NNW,327,0.0,0.0,89,0.00,,,0.00,meteohub,2013-06-24 09:33:00,
2013-06-24 04:38:00,61.5,58.3,29.92,NNW,327,0.0,0.0,89,0.00,,,0.00,meteohub,2013-06-24 09:38:00,
2013-06-24 04:43:00,61.5,58.3,29.92,NNW,327,0.0,0.0,89,0.00,,,0.00,meteohub,2013-06-24 09:43:00,
2013-06-24 04:49:00,61.9,59.0,29.92,NNW,327,0.0,0.0,90,0.00,,,0.00,meteohub,2013-06-24 09:49:00,
2013-06-24 04:54:00,62.2,59.0,29.92,NNW,327,0.0,0.0,89,0.00,,,0.00,meteohub,2013-06-24 09:54:00,
2013-06-24 04:59:00,62.2,59.2,29.92,NNW,327,0.0,0.0,90,0.00,,,0.00,meteohub,2013-06-24 09:59:00,
2013-06-24 05:04:00,62.4,59.4,29.92,NNW,327,0.0,0.0,90,0.00,,,0.00,meteohub,2013-06-24 10:04:00,
2013-06-24 05:10:00,62.4,59.4,29.92,NNW,327,0.0,0.0,90,0.00,,,0.00,meteohub,2013-06-24 10:10:00,
2013-06-24 05:15:00,61.9,59.0,29.92,NNW,327,0.0,0.0,90,0.00,,,0.00,meteohub,2013-06-24 10:15:00,
2013-06-24 05:20:00,61.5,58.6,29.93,NNW,327,0.0,0.0,90,0.00,,,0.00,meteohub,2013-06-24 10:20:00,
2013-06-24 05:25:00,61.0,58.1,29.93,NNW,327,0.0,0.0,90,0.00,,,0.00,meteohub,2013-06-24 10:25:00,
2013-06-24 05:30:00,60.6,57.7,29.93,NNW,327,0.0,0.0,90,0.00,,,0.00,meteohub,2013-06-24 10:30:00,
2013-06-24 05:35:00,60.8,57.9,29.93,NNW,327,0.0,0.0,90,0.00,,,0.00,meteohub,2013-06-24 10:35:00,
2013-06-24 05:41:00,61.5,58.6,29.94,NNW,327,0.0,0.0,90,0.00,,,0.00,meteohub,2013-06-24 10:41:00,
2013-06-24 05:46:00,61.5,58.6,29.93,NNW,327,0.0,0.0,90,0.00,,,0.00,meteohub,2013-06-24 10:46:00,
2013-06-24 05:51:00,61.9,59.0,29.93,NNW,327,0.0,0.0,90,0.00,,,0.00,meteohub,2013-06-24 10:51:00,
2013-06-24 05:56:00,61.5,58.6,29.93,NNW,327,0.0,0.0,90,0.00,,,0.01,meteohub,2013-06-24 10:56:00,
2013-06-24 06:01:00,61.7,58.8,29.93,NNW,327,0.0,0.0,90,0.01,,,0.01,meteohub,2013-06-24 11:01:00,
2013-06-24 06:06:00,61.9,59.0,29.93,NNW,327,0.0,0.0,90,0.01,,,0.01,meteohub,2013-06-24 11:06:00,
2013-06-24 06:11:00,62.1,59.2,29.93,NNW,327,0.0,0.0,90,0.01,,,0.01,meteohub,2013-06-24 11:11:00,
2013-06-24 06:17:00,61.9,59.0,29.94,NNW,327,0.0,0.0,90,0.01,,,0.01,meteohub,2013-06-24 11:17:00,
2013-06-24 06:22:00,62.1,59.2,29.94,NNW,327,0.0,0.0,90,0.01,,,0.01,meteohub,2013-06-24 11:22:00,
2013-06-24 06:27:00,62.6,59.5,29.94,NNW,327,0.0,0.0,90,0.01,,,0.01,meteohub,2013-06-24 11:27:00,
2013-06-24 06:32:00,63.0,59.9,29.94,NNW,327,0.0,0.0,90,0.01,,,0.01,meteohub,2013-06-24 11:32:00,
2013-06-24 06:37:00,62.6,59.5,29.94,NNW,327,0.0,0.0,90,0.01,,,0.01,meteohub,2013-06-24 11:37:00,
2013-06-24 06:42:00,62.2,59.2,29.94,NNW,327,0.0,0.0,90,0.01,,,0.01,meteohub,2013-06-24 11:42:00,
2013-06-24 06:47:00,62.4,59.4,29.95,NNW,327,0.0,0.0,90,0.01,,,0.01,meteohub,2013-06-24 11:47:00,
2013-06-24 06:52:00,62.4,59.4,29.94,NNW,327,0.0,0.0,90,0.01,,,0.01,meteohub,2013-06-24 11:52:00,
2013-06-24 06:57:00,63.7,60.6,29.94,NNW,327,0.0,0.0,90,0.00,,,0.01,meteohub,2013-06-24 11:57:00,
2013-06-24 07:02:00,64.0,61.0,29.94,NNW,327,0.0,0.0,90,0.00,,,0.01,meteohub,2013-06-24 12:02:00,
2013-06-24 07:07:00,64.8,61.7,29.94,NNW,327,0.0,0.0,90,0.00,,,0.01,meteohub,2013-06-24 12:07:00,
2013-06-24 07:13:00,64.9,61.9,29.94,NNW,327,0.0,0.0,90,0.00,,,0.01,meteohub,2013-06-24 12:13:00,
2013-06-24 07:18:00,65.5,62.4,29.94,NNW,327,0.0,0.0,90,0.00,,,0.01,meteohub,2013-06-24 12:18:00,
2013-06-24 07:23:00,65.8,62.8,29.94,NNW,327,0.0,0.0,90,0.00,,,0.01,meteohub,2013-06-24 12:23:00,
2013-06-24 07:28:00,66.9,63.9,29.94,NNW,327,0.0,0.0,90,0.00,,,0.01,meteohub,2013-06-24 12:28:00,
2013-06-24 07:34:00,68.0,64.9,29.94,NNW,327,0.0,0.0,90,0.00,,,0.01,meteohub,2013-06-24 12:34:00,
2013-06-24 07:39:00,68.9,65.8,29.93,NNW,327,0.0,0.0,90,0.00,,,0.01,meteohub,2013-06-24 12:39:00,
2013-06-24 07:44:00,69.3,66.2,29.92,NNW,327,0.0,0.0,90,0.00,,,0.01,meteohub,2013-06-24 12:44:00,
2013-06-24 07:50:00,68.9,65.8,29.92,NNW,327,0.0,0.0,90,0.00,,,0.01,meteohub,2013-06-24 12:50:00,
2013-06-24 07:55:00,68.7,65.7,29.92,NNW,327,0.0,0.0,90,0.00,,,0.01,meteohub,2013-06-24 12:55:00,
2013-06-24 08:00:00,68.5,65.5,29.91,NNW,327,0.0,0.0,90,0.00,,,0.01,meteohub,2013-06-24 13:00:00,
2013-06-24 08:05:00,69.3,66.2,29.91,NNW,327,0.0,0.0,90,0.00,,,0.01,meteohub,2013-06-24 13:05:00,
2013-06-24 08:10:00,69.8,66.7,29.91,NNW,327,0.0,0.0,90,0.00,,,0.01,meteohub,2013-06-24 13:10:00,
2013-06-24 08:15:00,70.2,67.1,29.91,NNW,327,0.0,0.0,90,0.00,,,0.01,meteohub,2013-06-24 13:15:00,
2013-06-24 08:20:00,71.1,68.0,29.91,NNW,327,0.0,0.0,90,0.00,,,0.01,meteohub,2013-06-24 13:20:00,
2013-06-24 08:25:00,71.8,68.7,29.91,NNW,327,0.0,0.0,90,0.00,,,0.01,meteohub,2013-06-24 13:25:00,
2013-06-24 08:30:00,72.7,69.6,29.91,NNW,327,0.0,0.0,90,0.00,,,0.01,meteohub,2013-06-24 13:30:00,
2013-06-24 08:35:00,73.2,69.8,29.91,NNW,327,0.0,0.0,89,0.00,,,0.01,meteohub,2013-06-24 13:35:00,
2013-06-24 08:40:00,73.6,69.8,29.91,NNW,327,0.0,0.0,88,0.00,,,0.01,meteohub,2013-06-24 13:40:00,
2013-06-24 08:45:00,74.7,70.5,29.92,NNW,327,0.0,0.0,87,0.00,,,0.01,meteohub,2013-06-24 13:45:00,
2013-06-24 08:50:00,75.6,70.3,29.92,NNW,327,0.0,0.0,84,0.00,,,0.01,meteohub,2013-06-24 13:50:00,
2013-06-24 08:56:00,75.9,68.9,29.92,NNW,327,0.0,0.0,79,0.00,,,0.01,meteohub,2013-06-24 13:56:00,
2013-06-24 09:01:00,76.1,68.4,29.92,NNW,327,0.0,0.0,77,0.00,,,0.01,meteohub,2013-06-24 14:01:00,
2013-06-24 09:06:00,76.3,68.2,29.92,NNW,327,0.0,0.0,76,0.00,,,0.01,meteohub,2013-06-24 14:06:00,
2013-06-24 09:11:00,76.5,68.0,29.93,NNW,327,0.0,0.0,75,0.00,,,0.01,meteohub,2013-06-24 14:11:00,
2013-06-24 09:16:00,76.6,67.6,29.93,NNW,327,0.0,0.0,74,0.00,,,0.01,meteohub,2013-06-24 14:16:00,
2013-06-24 09:21:00,77.2,68.2,29.93,NNW,327,0.0,0.0,74,0.00,,,0.01,meteohub,2013-06-24 14:21:00,
2013-06-24 09:26:00,77.7,68.4,29.93,NNW,327,0.0,0.0,73,0.00,,,0.01,meteohub,2013-06-24 14:26:00,
2013-06-24 09:31:00,77.7,68.0,29.93,NNW,327,0.0,0.0,72,0.00,,,0.01,meteohub,2013-06-24 14:31:00,
2013-06-24 09:36:00,77.5,67.8,29.93,NNW,328,0.0,0.0,72,0.00,,,0.01,meteohub,2013-06-24 14:36:00,
2013-06-24 09:41:00,77.5,68.2,29.93,NNW,327,0.0,0.0,73,0.00,,,0.01,meteohub,2013-06-24 14:41:00,
2013-06-24 09:46:00,78.1,68.4,29.93,NNW,327,0.0,0.0,72,0.00,,,0.01,meteohub,2013-06-24 14:46:00,
2013-06-24 09:51:00,78.4,68.2,29.93,NNW,327,0.0,0.0,71,0.00,,,0.01,meteohub,2013-06-24 14:51:00,
2013-06-24 09:56:00,78.4,68.2,29.93,WNW,298,0.0,0.0,71,0.00,,,0.01,meteohub,2013-06-24 14:56:00,
2013-06-24 10:01:00,78.3,68.5,29.93,West,279,0.0,0.0,72,0.00,,,0.01,meteohub,2013-06-24 15:01:00,
2013-06-24 10:06:00,78.6,69.3,29.93,West,279,0.0,0.0,73,0.00,,,0.01,meteohub,2013-06-24 15:06:00,
2013-06-24 10:11:00,79.2,68.9,29.92,West,267,0.0,0.0,71,0.00,,,0.01,meteohub,2013-06-24 15:11:00,
2013-06-24 10:17:00,79.9,69.6,29.92,West,267,0.0,0.0,71,0.00,,,0.01,meteohub,2013-06-24 15:17:00,
2013-06-24 10:22:00,79.7,69.1,29.92,SSW,213,0.0,0.0,70,0.00,,,0.01,meteohub,2013-06-24 15:22:00,
2013-06-24 10:27:00,79.5,69.3,29.92,SSW,207,0.0,0.0,71,0.00,,,0.01,meteohub,2013-06-24 15:27:00,
2013-06-24 10:32:00,79.3,69.4,29.92,SSW,207,1.0,4.0,72,0.00,,,0.01,meteohub,2013-06-24 15:32:00,
2013-06-24 10:37:00,79.9,70.0,29.92,SSW,206,2.0,4.0,72,0.00,,,0.01,meteohub,2013-06-24 15:37:00,
2013-06-24 10:42:00,79.9,69.6,29.92,SSW,206,1.0,4.0,71,0.00,,,0.01,meteohub,2013-06-24 15:42:00,
2013-06-24 10:47:00,80.2,70.3,29.92,SSW,207,0.0,4.0,72,0.00,,,0.01,meteohub,2013-06-24 15:47:00,
2013-06-24 10:52:00,80.6,70.0,29.91,SSW,207,5.0,5.0,70,0.00,,,0.01,meteohub,2013-06-24 15:52:00,
2013-06-24 10:57:00,80.8,70.2,29.91,SSW,209,1.0,6.0,70,0.00,,,0.01,meteohub,2013-06-24 15:57:00,
2013-06-24 11:02:00,80.8,70.2,29.91,SSW,213,0.0,7.0,70,0.00,,,0.01,meteohub,2013-06-24 16:02:00,
2013-06-24 11:07:00,81.1,70.0,29.91,SW,225,4.0,7.0,69,0.00,,,0.01,meteohub,2013-06-24 16:07:00,
2013-06-24 11:12:00,81.0,70.2,29.91,SW,229,0.0,7.0,70,0.00,,,0.01,meteohub,2013-06-24 16:12:00,
2013-06-24 11:17:00,81.0,70.2,29.91,South,184,0.0,8.0,70,0.00,,,0.01,meteohub,2013-06-24 16:17:00,
2013-06-24 11:22:00,80.6,70.0,29.91,South,184,0.0,8.0,70,0.00,,,0.01,meteohub,2013-06-24 16:22:00,
2013-06-24 11:27:00,80.6,70.0,29.91,SSW,192,3.0,8.0,70,0.00,,,0.01,meteohub,2013-06-24 16:27:00,
2013-06-24 11:32:00,80.8,70.5,29.90,South,191,2.0,7.0,71,0.00,,,0.01,meteohub,2013-06-24 16:32:00,
2013-06-24 11:37:00,81.0,69.8,29.91,WSW,248,0.0,9.0,69,0.00,,,0.01,meteohub,2013-06-24 16:37:00,
2013-06-24 11:43:00,81.3,69.8,29.90,WSW,237,5.0,9.0,68,0.00,,,0.01,meteohub,2013-06-24 16:43:00,
2013-06-24 11:48:00,81.9,70.3,29.90,SSW,196,1.0,9.0,68,0.00,,,0.01,meteohub,2013-06-24 16:48:00,
2013-06-24 11:53:00,81.7,70.5,29.90,West,261,5.0,11.0,69,0.00,,,0.01,meteohub,2013-06-24 16:53:00,
2013-06-24 11:58:00,81.5,69.4,29.91,WSW,238,2.0,11.0,67,0.00,,,0.01,meteohub,2013-06-24 16:58:00,
2013-06-24 12:04:00,81.1,70.0,29.91,WSW,245,1.0,15.0,69,0.00,,,0.01,meteohub,2013-06-24 17:04:00,
2013-06-24 12:09:00,80.8,70.2,29.90,SW,233,5.0,15.0,70,0.00,,,0.01,meteohub,2013-06-24 17:09:00,
2013-06-24 12:14:00,80.6,70.0,29.90,WSW,241,4.0,11.0,70,0.00,,,0.01,meteohub,2013-06-24 17:14:00,
2013-06-24 12:20:00,81.0,70.2,29.90,WSW,252,10.0,11.0,70,0.00,,,0.01,meteohub,2013-06-24 17:20:00,
2013-06-24 12:25:00,81.0,69.8,29.89,WSW,249,4.0,12.0,69,0.00,,,0.01,meteohub,2013-06-24 17:25:00,
2013-06-24 12:30:00,80.6,69.4,29.90,SW,227,4.0,12.0,69,0.00,,,0.01,meteohub,2013-06-24 17:30:00,
2013-06-24 12:36:00,80.8,70.5,29.89,SW,234,3.0,10.0,71,0.00,,,0.01,meteohub,2013-06-24 17:36:00,
2013-06-24 12:41:00,80.8,69.6,29.89,WSW,242,5.0,9.0,69,0.00,,,0.01,meteohub,2013-06-24 17:41:00,
2013-06-24 12:46:00,80.8,69.6,29.89,WSW,244,4.0,9.0,69,0.00,,,0.01,meteohub,2013-06-24 17:46:00,
2013-06-24 12:51:00,80.8,70.2,29.89,WSW,244,9.0,9.0,70,0.00,,,0.01,meteohub,2013-06-24 17:51:00,
2013-06-24 12:56:00,80.6,70.0,29.89,SW,228,1.0,10.0,70,0.00,,,0.01,meteohub,2013-06-24 17:56:00,
2013-06-24 13:01:00,80.8,70.5,29.89,SW,233,1.0,10.0,71,0.00,,,0.01,meteohub,2013-06-24 18:01:00,
2013-06-24 13:06:00,80.8,70.2,29.89,SW,219,1.0,10.0,70,0.00,,,0.01,meteohub,2013-06-24 18:06:00,
2013-06-24 13:11:00,80.8,70.5,29.89,SW,231,2.0,7.0,71,0.00,,,0.01,meteohub,2013-06-24 18:11:00,
2013-06-24 13:16:00,80.2,70.3,29.89,WSW,244,6.0,10.0,72,0.00,,,0.01,meteohub,2013-06-24 18:16:00,
2013-06-24 13:22:00,79.9,70.9,29.88,WSW,253,2.0,10.0,74,0.00,,,0.01,meteohub,2013-06-24 18:22:00,
2013-06-24 13:27:00,80.2,70.9,29.88,WSW,252,7.0,10.0,73,0.00,,,0.01,meteohub,2013-06-24 18:27:00,
2013-06-24 13:32:00,80.2,71.2,29.88,WSW,249,1.0,10.0,74,0.00,,,0.01,meteohub,2013-06-24 18:32:00,
2013-06-24 13:37:00,80.1,71.4,29.88,WSW,252,5.0,9.0,75,0.00,,,0.01,meteohub,2013-06-24 18:37:00,
2013-06-24 13:42:00,79.9,71.2,29.88,SW,231,3.0,9.0,75,0.00,,,0.01,meteohub,2013-06-24 18:42:00,
2013-06-24 13:47:00,79.2,70.5,29.88,WSW,248,8.0,12.0,75,0.00,,,0.01,meteohub,2013-06-24 18:47:00,
2013-06-24 13:53:00,77.7,70.0,29.88,West,259,9.0,21.0,77,0.00,,,0.01,meteohub,2013-06-24 18:53:00,
2013-06-24 13:58:00,76.6,70.0,29.88,West,265,10.0,21.0,80,0.00,,,0.01,meteohub,2013-06-24 18:58:00,
2013-06-24 14:03:00,76.3,70.0,29.87,SW,230,5.0,21.0,81,0.00,,,0.01,meteohub,2013-06-24 19:03:00,
2013-06-24 14:09:00,76.3,70.0,29.87,WSW,257,10.0,19.0,81,0.00,,,0.01,meteohub,2013-06-24 19:09:00,
2013-06-24 14:15:00,76.3,70.3,29.87,WSW,243,7.0,18.0,82,0.00,,,0.01,meteohub,2013-06-24 19:15:00,
2013-06-24 14:21:00,75.9,70.0,29.87,WSW,242,9.0,12.0,82,0.00,,,0.01,meteohub,2013-06-24 19:21:00,
2013-06-24 14:26:00,75.7,70.2,29.86,SW,225,3.0,12.0,83,0.00,,,0.01,meteohub,2013-06-24 19:26:00,
2013-06-24 14:31:00,75.6,70.3,29.86,WSW,247,5.0,13.0,84,0.00,,,0.01,meteohub,2013-06-24 19:31:00,
2013-06-24 14:37:00,75.4,70.2,29.84,WSW,239,4.0,13.0,84,0.00,,,0.01,meteohub,2013-06-24 19:37:00,
2013-06-24 14:42:00,75.7,70.5,29.84,SW,215,1.0,13.0,84,0.00,,,0.01,meteohub,2013-06-24 19:42:00,
2013-06-24 14:47:00,75.7,70.5,29.83,SW,232,10.0,11.0,84,0.00,,,0.01,meteohub,2013-06-24 19:47:00,
2013-06-24 14:52:00,75.7,70.5,29.83,SW,227,3.0,11.0,84,0.00,,,0.01,meteohub,2013-06-24 19:52:00,
2013-06-24 14:57:00,75.7,70.2,29.84,SW,230,3.0,11.0,83,0.00,,,0.01,meteohub,2013-06-24 19:57:00,
2013-06-24 15:03:00,75.7,70.5,29.84,West,265,4.0,16.0,84,0.00,,,0.01,meteohub,2013-06-24 20:03:00,
2013-06-24 15:08:00,75.7,70.2,29.85,West,262,10.0,16.0,83,0.00,,,0.01,meteohub,2013-06-24 20:08:00,
2013-06-24 15:13:00,75.7,70.2,29.85,West,269,9.0,16.0,83,0.00,,,0.01,meteohub,2013-06-24 20:13:00,
2013-06-24 15:18:00,75.6,70.0,29.85,WSW,248,3.0,14.0,83,0.00,,,0.01,meteohub,2013-06-24 20:18:00,
2013-06-24 15:23:00,75.6,70.3,29.85,West,261,4.0,14.0,84,0.00,,,0.01,meteohub,2013-06-24 20:23:00,
2013-06-24 15:28:00,75.4,70.2,29.85,WSW,250,7.0,12.0,84,0.00,,,0.01,meteohub,2013-06-24 20:28:00,
2013-06-24 15:33:00,75.6,70.3,29.85,WSW,257,10.0,10.0,84,0.00,,,0.01,meteohub,2013-06-24 20:33:00,
2013-06-24 15:38:00,75.7,70.5,29.84,WSW,257,3.0,12.0,84,0.00,,,0.01,meteohub,2013-06-24 20:38:00,
2013-06-24 15:44:00,75.9,70.3,29.85,West,279,7.0,12.0,83,0.00,,,0.01,meteohub,2013-06-24 20:44:00,
2013-06-24 15:49:00,75.6,69.6,29.85,WNW,286,11.0,14.0,82,0.00,,,0.01,meteohub,2013-06-24 20:49:00,
2013-06-24 15:55:00,75.2,69.3,29.86,West,280,6.0,14.0,82,0.00,,,0.01,meteohub,2013-06-24 20:55:00,
2013-06-24 16:00:00,74.8,69.3,29.86,WNW,283,13.0,14.0,83,0.00,,,0.01,meteohub,2013-06-24 21:00:00,
2013-06-24 16:05:00,74.7,69.1,29.86,West,265,7.0,14.0,83,0.00,,,0.01,meteohub,2013-06-24 21:05:00,
2013-06-24 16:10:00,74.7,69.1,29.86,West,281,12.0,13.0,83,0.00,,,0.01,meteohub,2013-06-24 21:10:00,
2013-06-24 16:15:00,74.5,68.2,29.86,WNW,298,11.0,15.0,81,0.00,,,0.01,meteohub,2013-06-24 21:15:00,
2013-06-24 16:21:00,74.1,67.6,29.86,WNW,284,13.0,15.0,80,0.00,,,0.01,meteohub,2013-06-24 21:21:00,
2013-06-24 16:26:00,73.9,67.1,29.86,West,269,6.0,15.0,79,0.00,,,0.01,meteohub,2013-06-24 21:26:00,
2013-06-24 16:31:00,73.8,67.3,29.86,West,271,4.0,15.0,80,0.00,,,0.01,meteohub,2013-06-24 21:31:00,
2013-06-24 16:36:00,73.8,67.3,29.86,West,269,0.0,14.0,80,0.00,,,0.01,meteohub,2013-06-24 21:36:00,
2013-06-24 16:41:00,73.8,67.3,29.86,West,269,0.0,7.0,80,0.00,,,0.01,meteohub,2013-06-24 21:41:00,
2013-06-24 16:46:00,73.8,67.3,29.86,West,270,0.0,4.0,80,0.00,,,0.01,meteohub,2013-06-24 21:46:00,
2013-06-24 16:51:00,73.9,67.8,29.86,West,270,0.0,3.0,81,0.00,,,0.01,meteohub,2013-06-24 21:51:00,
2013-06-24 16:57:00,73.9,67.5,29.86,West,270,0.0,3.0,80,0.00,,,0.01,meteohub,2013-06-24 21:57:00,
2013-06-24 17:02:00,74.1,67.6,29.86,West,270,0.0,2.0,80,0.00,,,0.01,meteohub,2013-06-24 22:02:00,
2013-06-24 17:07:00,74.5,67.8,29.86,West,270,0.0,2.0,80,0.00,,,0.01,meteohub,2013-06-24 22:07:00,
2013-06-24 17:12:00,74.7,68.0,29.86,West,269,0.0,0.0,80,0.00,,,0.01,meteohub,2013-06-24 22:12:00,
2013-06-24 17:17:00,75.0,68.0,29.86,West,270,0.0,0.0,79,0.00,,,0.01,meteohub,2013-06-24 22:17:00,
2013-06-24 17:23:00,75.0,68.0,29.86,West,270,0.0,0.0,79,0.00,,,0.01,meteohub,2013-06-24 22:23:00,
2013-06-24 17:28:00,75.0,68.0,29.86,West,270,0.0,1.0,79,0.00,,,0.01,meteohub,2013-06-24 22:28:00,
2013-06-24 17:33:00,75.4,68.4,29.86,West,270,0.0,1.0,79,0.00,,,0.01,meteohub,2013-06-24 22:33:00,
2013-06-24 17:38:00,75.7,68.4,29.86,West,269,0.0,1.0,78,0.00,,,0.01,meteohub,2013-06-24 22:38:00,
2013-06-24 17:43:00,75.7,68.0,29.86,West,270,0.0,1.0,77,0.00,,,0.01,meteohub,2013-06-24 22:43:00,
2013-06-24 17:49:00,75.9,68.2,29.86,West,270,0.0,2.0,77,0.00,,,0.01,meteohub,2013-06-24 22:49:00,
2013-06-24 17:55:00,76.3,68.5,29.86,West,271,0.0,2.0,77,0.00,,,0.01,meteohub,2013-06-24 22:55:00,
2013-06-24 18:00:00,76.3,68.5,29.85,West,270,0.0,2.0,77,0.00,,,0.01,meteohub,2013-06-24 23:00:00,
2013-06-24 18:05:00,75.9,67.8,29.86,West,269,0.0,4.0,76,0.00,,,0.01,meteohub,2013-06-24 23:05:00,
2013-06-24 18:11:00,75.9,68.2,29.86,West,270,2.0,5.0,77,0.00,,,0.01,meteohub,2013-06-24 23:11:00,
2013-06-24 18:16:00,75.9,68.2,29.86,WSW,254,3.0,5.0,77,0.00,,,0.01,meteohub,2013-06-24 23:16:00,
2013-06-24 18:21:00,75.7,68.4,29.86,WSW,249,3.0,6.0,78,0.00,,,0.01,meteohub,2013-06-24 23:21:00,
2013-06-24 18:26:00,75.6,68.2,29.86,WSW,241,2.0,6.0,78,0.00,,,0.01,meteohub,2013-06-24 23:26:00,
2013-06-24 18:31:00,75.6,68.2,29.86,WSW,242,4.0,6.0,78,0.00,,,0.01,meteohub,2013-06-24 23:31:00,
2013-06-24 18:36:00,75.7,68.4,29.86,WSW,242,3.0,6.0,78,0.00,,,0.01,meteohub,2013-06-24 23:36:00,
2013-06-24 18:41:00,75.9,68.5,29.86,WSW,242,3.0,6.0,78,0.00,,,0.01,meteohub,2013-06-24 23:41:00,
2013-06-24 18:47:00,75.7,67.6,29.86,West,273,6.0,6.0,76,0.00,,,0.01,meteohub,2013-06-24 23:47:00,
2013-06-24 18:52:00,75.4,66.9,29.86,WSW,246,7.0,10.0,75,0.00,,,0.01,meteohub,2013-06-24 23:52:00,
2013-06-24 18:57:00,75.0,66.9,29.86,WSW,245,7.0,10.0,76,0.00,,,0.01,meteohub,2013-06-24 23:57:00,
2013-06-24 19:02:00,74.7,66.6,29.86,WSW,240,4.0,10.0,76,0.00,,,0.01,meteohub,2013-06-25 00:02:00,
2013-06-24 19:07:00,74.7,66.9,29.86,WSW,242,3.0,10.0,77,0.00,,,0.01,meteohub,2013-06-25 00:07:00,
2013-06-24 19:12:00,74.5,66.7,29.86,WSW,242,5.0,9.0,77,0.00,,,0.01,meteohub,2013-06-25 00:12:00,
2013-06-24 19:17:00,74.5,67.1,29.85,WSW,243,0.0,7.0,78,0.00,,,0.01,meteohub,2013-06-25 00:17:00,
2013-06-24 19:22:00,74.5,67.1,29.85,WSW,238,0.0,7.0,78,0.00,,,0.01,meteohub,2013-06-25 00:22:00,
2013-06-24 19:27:00,74.5,67.1,29.85,WSW,238,1.0,6.0,78,0.00,,,0.01,meteohub,2013-06-25 00:27:00,
2013-06-24 19:32:00,74.1,66.7,29.85,WSW,238,0.0,6.0,78,0.00,,,0.01,meteohub,2013-06-25 00:32:00,
2013-06-24 19:37:00,74.1,66.7,29.85,WSW,238,4.0,4.0,78,0.00,,,0.01,meteohub,2013-06-25 00:37:00,
2013-06-24 19:42:00,74.1,66.7,29.85,WSW,238,0.0,4.0,78,0.00,,,0.01,meteohub,2013-06-25 00:42:00,
2013-06-24 19:47:00,73.9,67.1,29.85,WSW,238,1.0,4.0,79,0.00,,,0.01,meteohub,2013-06-25 00:47:00,
2013-06-24 19:52:00,73.9,67.1,29.85,WSW,238,0.0,4.0,79,0.00,,,0.01,meteohub,2013-06-25 00:52:00,
2013-06-24 19:57:00,73.8,66.9,29.85,WSW,238,0.0,4.0,79,0.00,,,0.01,meteohub,2013-06-25 00:57:00,
2013-06-24 20:02:00,73.8,66.9,29.85,WSW,238,0.0,3.0,79,0.00,,,0.01,meteohub,2013-06-25 01:02:00,
2013-06-24 20:07:00,73.6,66.7,29.85,WSW,238,0.0,3.0,79,0.00,,,0.01,meteohub,2013-06-25 01:07:00,
2013-06-24 20:12:00,73.6,66.7,29.85,WSW,238,1.0,2.0,79,0.00,,,0.01,meteohub,2013-06-25 01:12:00,
2013-06-24 20:17:00,73.4,66.6,29.84,WSW,238,0.0,3.0,79,0.00,,,0.01,meteohub,2013-06-25 01:17:00,
2013-06-24 20:22:00,73.2,66.4,29.84,WSW,237,0.0,4.0,79,0.00,,,0.01,meteohub,2013-06-25 01:22:00,
2013-06-24 20:27:00,73.0,66.6,29.84,WSW,238,0.0,4.0,80,0.00,,,0.01,meteohub,2013-06-25 01:27:00,
2013-06-24 20:32:00,72.9,66.4,29.85,WSW,238,2.0,4.0,80,0.00,,,0.01,meteohub,2013-06-25 01:32:00,
2013-06-24 20:37:00,72.7,66.6,29.85,WSW,238,0.0,3.0,81,0.00,,,0.01,meteohub,2013-06-25 01:37:00,
2013-06-24 20:42:00,72.7,66.6,29.85,WSW,238,0.0,3.0,81,0.00,,,0.01,meteohub,2013-06-25 01:42:00,
2013-06-24 20:47:00,72.5,66.4,29.84,WSW,238,0.0,3.0,81,0.00,,,0.01,meteohub,2013-06-25 01:47:00,
2013-06-24 20:52:00,72.3,66.2,29.84,WSW,237,1.0,5.0,81,0.00,,,0.01,meteohub,2013-06-25 01:52:00,
2013-06-24 20:57:00,72.3,66.2,29.84,WSW,237,0.0,5.0,81,0.00,,,0.01,meteohub,2013-06-25 01:57:00,
2013-06-24 21:02:00,72.1,66.0,29.84,WSW,237,3.0,5.0,81,0.00,,,0.01,meteohub,2013-06-25 02:02:00,
2013-06-24 21:07:00,72.0,65.8,29.84,WSW,238,0.0,4.0,81,0.00,,,0.01,meteohub,2013-06-25 02:07:00,
2013-06-24 21:12:00,71.8,66.0,29.84,WSW,238,0.0,4.0,82,0.00,,,0.01,meteohub,2013-06-25 02:12:00,
2013-06-24 21:17:00,71.6,65.8,29.85,WSW,238,0.0,4.0,82,0.00,,,0.01,meteohub,2013-06-25 02:17:00,
2013-06-24 21:22:00,71.6,65.8,29.85,WSW,238,0.0,1.0,82,0.00,,,0.01,meteohub,2013-06-25 02:22:00,
2013-06-24 21:28:00,71.4,65.7,29.84,WSW,237,0.0,1.0,82,0.00,,,0.01,meteohub,2013-06-25 02:28:00,
2013-06-24 21:33:00,71.4,65.7,29.84,WSW,238,0.0,1.0,82,0.00,,,0.01,meteohub,2013-06-25 02:33:00,
2013-06-24 21:38:00,71.4,66.0,29.84,WSW,237,0.0,1.0,83,0.00,,,0.01,meteohub,2013-06-25 02:38:00,
2013-06-24 21:43:00,71.1,65.7,29.84,WSW,237,1.0,1.0,83,0.00,,,0.01,meteohub,2013-06-25 02:43:00,
2013-06-24 21:48:00,70.9,65.8,29.85,WSW,238,0.0,1.0,84,0.00,,,0.01,meteohub,2013-06-25 02:48:00,
2013-06-24 21:53:00,70.5,65.8,29.85,WSW,237,0.0,1.0,85,0.00,,,0.01,meteohub,2013-06-25 02:53:00,
2013-06-24 21:58:00,70.2,65.5,29.85,WSW,238,0.0,1.0,85,0.00,,,0.01,meteohub,2013-06-25 02:58:00,
2013-06-24 22:03:00,69.8,65.1,29.86,WSW,237,0.0,0.0,85,0.00,,,0.01,meteohub,2013-06-25 03:03:00,
2013-06-24 22:09:00,69.4,65.1,29.86,WSW,238,0.0,0.0,86,0.00,,,0.01,meteohub,2013-06-25 03:09:00,
2013-06-24 22:14:00,69.3,64.9,29.86,WSW,237,0.0,0.0,86,0.00,,,0.01,meteohub,2013-06-25 03:14:00,
2013-06-24 22:19:00,68.9,64.6,29.86,WSW,238,0.0,0.0,86,0.00,,,0.01,meteohub,2013-06-25 03:19:00,
2013-06-24 22:25:00,68.5,64.6,29.86,WSW,237,0.0,0.0,87,0.00,,,0.01,meteohub,2013-06-25 03:25:00,
2013-06-24 22:30:00,68.2,64.2,29.86,WSW,237,0.0,0.0,87,0.00,,,0.01,meteohub,2013-06-25 03:30:00,
2013-06-24 22:35:00,68.2,64.4,29.86,WSW,237,0.0,0.0,88,0.00,,,0.01,meteohub,2013-06-25 03:35:00,
2013-06-24 22:40:00,67.8,63.9,29.86,WSW,238,0.0,0.0,87,0.00,,,0.01,meteohub,2013-06-25 03:40:00,
2013-06-24 22:46:00,67.6,64.0,29.86,WSW,237,0.0,0.0,88,0.00,,,0.01,meteohub,2013-06-25 03:46:00,
2013-06-24 22:51:00,67.8,64.2,29.86,WSW,238,0.0,0.0,88,0.00,,,0.01,meteohub,2013-06-25 03:51:00,
2013-06-24 22:56:00,67.8,64.2,29.86,WSW,238,0.0,0.0,88,0.00,,,0.01,meteohub,2013-06-25 03:56:00,
2013-06-24 23:01:00,67.6,64.0,29.86,WSW,238,0.0,0.0,88,0.00,,,0.01,meteohub,2013-06-25 04:01:00,
2013-06-24 23:02:00,67.6,64.0,29.86,WSW,237,0.0,0.0,88,0.00,,,0.01,meteohub,2013-06-25 04:02:00,
2013-06-24 23:07:00,68.2,64.8,29.87,WSW,237,0.0,0.0,89,0.00,,,0.01,meteohub,2013-06-25 04:07:00,
2013-06-24 23:12:00,68.2,64.8,29.87,WSW,237,0.0,0.0,89,0.00,,,0.01,meteohub,2013-06-25 04:12:00,
2013-06-24 23:17:00,68.4,64.9,29.87,WSW,238,0.0,0.0,89,0.00,,,0.01,meteohub,2013-06-25 04:17:00,
2013-06-24 23:22:00,68.4,64.6,29.87,WSW,237,0.0,0.0,88,0.00,,,0.01,meteohub,2013-06-25 04:22:00,
2013-06-24 23:27:00,68.2,64.4,29.87,WSW,238,0.0,0.0,88,0.00,,,0.01,meteohub,2013-06-25 04:27:00,
2013-06-24 23:32:00,68.4,64.6,29.87,WSW,238,0.0,0.0,88,0.00,,,0.01,meteohub,2013-06-25 04:32:00,
2013-06-24 23:38:00,68.5,64.8,29.87,WSW,238,0.0,3.0,88,0.00,,,0.01,meteohub,2013-06-25 04:38:00,
2013-06-24 23:43:00,68.7,64.9,29.86,WSW,238,0.0,3.0,88,0.00,,,0.01,meteohub,2013-06-25 04:43:00,
2013-06-24 23:48:00,68.7,64.8,29.86,WSW,238,0.0,5.0,87,0.00,,,0.01,meteohub,2013-06-25 04:48:00,
2013-06-24 23:53:00,68.5,64.6,29.86,WSW,238,0.0,5.0,87,0.00,,,0.01,meteohub,2013-06-25 04:53:00,
2013-06-24 23:58:00,68.4,64.4,29.86,WSW,238,0.0,5.0,87,0.00,,,0.01,meteohub,2013-06-25 04:58:00,